Jendouba, Tunisia

6:34 AM CET on October 16, 2019 (GMT +0100)
Jendouba

Weather History for DTTN - August, 2019

Change the Weather History Date:

Saturday, August 31, 2019

  Actual Average Record
Temperature  
Mean Temperature 77 °F -  
Max Temperature 84 °F 89 °F - ()
Min Temperature 70 °F 62 °F - ()
Cooling Degree Days 12    
Growing Degree Days 27 (Base 50)    
Moisture  
Dew Point 69 °F    
Average Humidity 84    
Maximum Humidity 94    
Minimum Humidity 62    
Precipitation  
Precipitation 0.20 in 0.04 in - ()
Sea Level Pressure  
Sea Level Pressure 29.97 in    
Wind  
Wind Speed 3 mph ()    
Max Wind Speed 9 mph    
Max Gust Speed -    
Visibility 5.9 miles    
Events Rain    
T = Trace of Precipitation, MM = Missing Value Source: Averaged Metar Reports

Daily Weather History Graph

Daily Weather History Graph

Search for Another Location

Airport or City:

Astronomy

Aug. 31, 2019 Rise Set
Actual Time 5:54 AM CET 6:54 PM CET
Civil Twilight 5:28 AM CET 7:21 PM CET
Nautical Twilight 4:57 AM CET 7:52 PM CET
Astronomical Twilight 4:24 AM CET 8:24 PM CET
Moon 6:50 AM CET (8/31) 7:59 PM CET (8/31)
Length of Visible Light 13h 52m
Length of Day
12h 59m
New Moon, 2% of the Moon is Illuminated
Aug 31
New Moon
Sep 6
First Quarter
Sep 14
Full
Sep 22
Last Quarter
Sep 28
New

Hourly Weather History & Observations

Time (CET) Temp. Heat Index Dew Point Humidity Pressure Visibility Wind Dir Wind Speed Gust Speed Precip Events Conditions
12:00 AM 75.2 °F - 68.0 °F 78% 30.04 in 5.0 mi NE 3.5 mph - N/A   Scattered Clouds
1:00 AM 73.4 °F - 68.0 °F 83% 30.04 in 5.0 mi East 1.2 mph - N/A   Scattered Clouds
2:00 AM 71.6 °F - 66.2 °F 83% 30.01 in 5.0 mi WSW 2.3 mph - N/A   Scattered Clouds
3:00 AM 73.4 °F - 68.0 °F 83% 30.01 in 5.0 mi Variable 2.3 mph - N/A   Scattered Clouds
4:00 AM 71 °F - 67 °F 84% 29.99 in 5 mi NE 1.2 mph - -   Mostly Cloudy
4:00 AM 71.6 °F - 68.0 °F 88% 30.01 in 5.0 mi NE 1.2 mph - N/A   Scattered Clouds
5:00 AM 71.6 °F - 68.0 °F 88% 29.98 in 5.0 mi Variable 1.2 mph - N/A   Scattered Clouds
6:00 AM 71.6 °F - 68.0 °F 88% 29.98 in 6.2 mi SSE 1.2 mph - N/A   Scattered Clouds
7:00 AM 72 °F - 68 °F 84% 29.99 in 6 mi SW 3.5 mph - -   Mostly Cloudy
9:00 AM 73.4 °F - 69.8 °F 88% 30.01 in 6.2 mi WSW 3.5 mph - N/A Rain Light Rain Showers
10:00 AM - - 69 °F % 30.01 in 6 mi South 6.9 mph - - Rain Light Rain Showers
10:00 AM 71.6 °F - 69.8 °F 94% 30.01 in - South 2.3 mph - N/A Rain Rain Showers
11:00 AM 73.4 °F - 69.8 °F 88% 30.01 in 6.2 mi Variable 1.2 mph - N/A   Scattered Clouds
12:00 PM 77.0 °F - 69.8 °F 78% 29.98 in 6.2 mi Calm Calm - N/A   Scattered Clouds
1:00 PM 80 °F - 70 °F 65% 29.96 in 9 mi East 2.3 mph - -   Partly Cloudy
3:00 PM 84.2 °F 88.4 °F 69.8 °F 62% 29.89 in 6.2 mi East 4.6 mph - N/A   Partly Cloudy
4:00 PM 80.6 °F 83.2 °F 68.0 °F 65% 29.89 in 6.2 mi North 6.9 mph - N/A   Scattered Clouds
5:00 PM 73.4 °F - 68.0 °F 83% 29.89 in 6.2 mi NE 2.3 mph - N/A   Scattered Clouds
6:00 PM 73.4 °F - 69.8 °F 88% 29.92 in 6.2 mi SW 4.6 mph - N/A   Scattered Clouds
7:00 PM 73 °F - 70 °F 87% 29.93 in 6 mi SW 4.6 mph - -   Partly Cloudy
7:00 PM 73.4 °F - 69.8 °F 88% 29.92 in 6.2 mi SW 4.6 mph - N/A   Scattered Clouds
8:00 PM 73.4 °F - 69.8 °F 88% 29.92 in 6.2 mi South 4.6 mph - N/A   Scattered Clouds
9:00 PM 71.6 °F - 68.0 °F 88% 29.92 in 6.2 mi SSW 9.2 mph - N/A   Scattered Clouds
10:00 PM 72 °F - 69 °F 88% 29.95 in 6 mi WSW 4.6 mph - -   Partly Cloudy
10:00 PM 73.4 °F - 69.8 °F 88% 29.95 in 6.2 mi WSW 4.6 mph - N/A   Scattered Clouds
11:00 PM 71.6 °F - 69.8 °F 94% 29.92 in 6.2 mi South 4.6 mph - N/A   Partly Cloudy